Find Starlink 31156

NORAD ID: 58743 Int'l Des: 2024-005 Owner: SPXS Country: US Constellation: starlink operational
LEOCIRCULAR

Live Position

Loading 3D Globe...

About Starlink 31156

Description loading...

Upcoming Passes

Passes for default location (London). Set your location on the main map for personalized predictions.

Altitude History

Loading altitude history...

Two-Line Element Set

1 58743U 24005R 26121.70931361 -.00001639 00000-0 -50073-4 0 9990
2 58743 43.0011 280.2247 0000930 280.0302 80.0444 15.27560351128602
Epoch: May 1, 2026 • Age: 23 hours

Current Status

Altitude 495.4 km
Velocity 7.62 km/s
Sub-Earth Point -41.86°S, 65.33°E
Launch Date Jan 7, 2024
Age 2.3 years
Type internet

Technical Details

Classification Payload
Mass 730.00 kg
Dry Mass 700.00 kg
Total Mass 730.00 kg
Length 0.30 m
Diameter 4.10 m
Span 29.00 m
Shape Box + pan
Manufacturer SPXS
Bus Type Starlink V2M
Phase Status In Orbit
Owner/State SPXS/US

Most Searched